#timestamp,LO_Frequency,Hit,StdDev 
1600268415.2,286047000.4,N
1600268435.9,286046998.2,N
1600268455.7,286046999.2,N
1600268475.6,286046998.0,N
1600268495.4,286046996.5,N
1600268515.2,286046998.3,N
1600268535.1,286046999.2,N
1600268536.0,286046999.2,N
1600268555.8,286046997.6,N
1600268575.7,286046995.5,N
1600268595.5,286046994.9,N
1600268615.3,286046998.8,N
1600268635.2,286046999.3,N
1600268655.0,286046996.5,N
1600268655.9,286046996.5,N
1600268675.8,286046996.6,N
1600268695.6,286046999.3,N
1600268715.4,286046999.4,N
1600268735.3,286046996.6,N
1600268755.1,286046995.1,N
1600268775.8,286046995.3,N
1600268795.7,286046994.9,N
1600268815.5,286046997.9,N
1600268835.4,286046997.3,N
1600268855.2,286046995.1,N
1600268875.0,286046994.7,N
1600268875.9,286046994.7,N
1600268895.8,286046992.4,Y
1600268915.6,286046997.4,P
1600268935.5,286046994.9,P
1600268955.3,286046993.5,P
1600268975.1,286046993.9,Y
1600268995.9,286046999.3,P
1600269015.7,286046999.7,N
1600269035.5,286046999.7,N
1600269055.4,286047000.0,N
1600269075.2,286047000.0,N
1600269095.1,286047000.8,N
1600269096.0,286047000.8,N
1600269115.8,286046999.9,N
1600269135.6,286047002.0,N
1600269155.5,286046999.7,N
1600269175.3,286047001.7,N
1600269195.1,286046998.5,N
1600269215.9,286046996.9,N
1600269235.7,286046999.4,N
1600269255.6,286046996.9,N
1600269275.4,286046996.9,N
1600269295.2,286046999.0,N
1600269315.1,286047002.7,N
1600269316.0,286047002.7,N
1600269335.8,286046999.7,N
1600269355.7,286047000.2,N
1600269375.5,286047000.5,N
1600269395.3,286047000.6,N
1600269415.2,286047000.8,N
1600269435.0,286047000.3,N
1600269435.9,286047000.3,N
1600269455.7,286047000.1,N
1600269475.6,286047000.1,N
1600269495.4,286046999.8,N
1600269515.3,286047000.3,N
1600269535.1,286046996.7,N
1600269536.0,286046996.7,N
1600269555.8,286046999.2,N
1600269575.7,286046999.6,N
1600269595.5,286046999.6,N
1600269615.3,286046999.5,N
1600269635.2,286046999.5,N
1600269655.0,286046996.8,N
1600269655.9,286046996.8,N
1600269675.8,286046996.5,N
1600269695.6,286046996.8,N
1600269715.4,286046998.9,N
1600269735.3,286047000.6,N
1600269755.1,286047000.7,N
1600269775.9,286046998.3,N
1600269795.7,286046998.3,N
1600269815.5,286046998.9,N
1600269835.4,286046999.6,N
1600269855.2,286046998.8,N
1600269875.0,286046998.8,N
1600269875.9,286046998.8,N
1600269895.8,286046999.3,N
1600269915.6,286046999.4,N
1600269935.5,286046999.6,N
1600269955.3,286046998.7,N
1600269975.1,286046998.5,N
1600269995.9,286046996.9,N
1600270015.7,286046997.0,N
1600270035.5,286046999.4,N
1600270055.4,286046996.6,N
1600270075.2,286046995.4,Y
1600270095.1,286046999.5,P
1600270096.0,286046999.5,N
1600270115.8,286046998.4,P
1600270135.6,286046996.6,Y
1600270155.5,286046996.6,P
1600270175.3,286046999.6,N
1600270195.2,286046999.1,N
1600270215.9,286046999.8,N
1600270235.7,286046999.7,N
1600270255.6,286047002.8,N
1600270275.4,286047000.0,N
1600270295.3,286047001.9,N
1600270315.1,286047004.1,N
1600270316.0,286047004.1,N
1600270335.8,286047001.6,N
1600270355.7,286047004.4,N
1600270375.5,286047002.5,N
1600270395.3,286047002.3,N
1600270415.2,286047001.6,N
1600270435.0,286047001.8,N
1600270435.9,286047001.8,N
1600270455.8,286047004.4,N
1600270475.6,286047000.6,N
1600270495.4,286046999.8,N
1600270515.3,286046999.9,N
1600270535.1,286047003.1,N
1600270555.8,286047005.7,N
1600270575.7,286047004.2,N
1600270595.5,286047004.0,N
1600270615.4,286047003.6,N
1600270635.2,286047004.0,N
1600270655.0,286047004.3,N
1600270655.9,286047004.3,N
1600270675.8,286047006.0,N
1600270695.6,286047005.8,N
1600270715.4,286047003.5,N
1600270735.3,286047002.2,N
1600270755.1,286047001.6,N
1600270775.9,286047004.1,N
1600270795.7,286047003.6,N
1600270815.5,286047004.4,N
1600270835.4,286047003.7,N
1600270855.2,286047004.2,N
1600270875.1,286047002.0,N
1600270876.0,286047002.0,N
1600270895.8,286047002.1,N
1600270915.6,286047002.8,N
1600270935.5,286047002.7,N
1600270955.3,286047003.7,N
1600270975.1,286047001.6,N
1600270995.9,286047004.4,N
1600271015.7,286047002.2,N
1600271035.6,286047000.2,N
1600271055.4,286047002.9,N
1600271075.2,286047003.2,N
1600271095.1,286047003.5,N
1600271096.0,286047003.5,N
1600271115.8,286047003.9,Y
1600271135.7,286047000.1,P
1600271155.5,286047000.6,N
1600271175.3,286046998.1,N
1600271195.2,286046998.5,N
1600271215.0,286047002.4,N
1600271215.9,286047002.4,N
1600271235.7,286047000.2,N
1600271255.6,286046998.3,N
1600271275.4,286046996.7,N
1600271295.3,286047000.9,N
1600271315.1,286046999.7,N
1600271316.0,286046999.7,N
1600271335.8,286046999.9,N
1600271355.7,286047001.9,N
1600271375.5,286047002.7,N
1600271395.4,286047002.4,N
1600271415.2,286047000.3,N
1600271435.0,286046998.5,N
1600271435.9,286046998.5,N
1600271455.8,286046999.0,N
1600271475.6,286046997.3,N
1600271495.4,286046999.2,N
1600271515.3,286047001.0,N
1600271535.1,286047000.5,N
1600271555.9,286047003.9,N
1600271575.7,286047003.1,N
1600271595.5,286047003.8,N
1600271615.4,286047001.8,N
1600271635.2,286047000.4,N
1600271655.0,286046998.5,N
1600271655.9,286046998.5,N
1600271675.8,286047001.0,N
1600271725.7,286047002.8,E
1600271735.6,286046998.2,N
1600271755.4,286046997.9,P
1600271775.3,286046999.3,P
1600271795.1,286046999.4,N
1600271796.0,286046999.4,N
1600271815.8,286046998.4,N
1600271835.7,286047001.2,N
1600271855.5,286046999.1,N
1600271875.3,286046997.8,N
1600271895.2,286046997.4,N
1600271915.0,286046997.4,N
1600271915.9,286046997.4,N
1600271935.8,286046998.9,N
1600271955.6,286047001.1,N
1600271975.4,286046999.3,N
1600271995.3,286046998.9,N
